period_start,C,m1,H,J0,J1,J2,J3,J4,J5,JA,JB,JC,JD,JJ,JK,JN,#
2014-07-22 00:41:08,0.00,0.00,0.00,15.60,14.89,14.93,8.27,33.29,1006.77,1884.34,3219.31,3080.88,3354.80,430.78,434.70,0.00,0000 0000 0000 0000 000000
2014-07-22 00:46:09,0.00,0.00,0.00,15.82,14.98,16.54,9.48,38.63,1007.27,2091.10,3570.12,3417.51,3722.13,500.04,504.48,0.04,0000 0000 0000 0000 000000
2014-07-22 00:51:11,0.00,0.00,0.00,16.11,15.10,17.40,9.53,38.59,1007.35,2090.32,3568.09,3415.70,3720.13,499.82,503.74,0.09,0000 0000 0000 0000 000000
2014-07-22 00:56:13,0.01,0.00,0.00,16.42,15.25,17.99,9.55,38.77,1007.38,2089.82,3566.69,3414.23,3718.46,500.03,503.47,0.13,0000 0000 0000 0000 000000
2014-07-22 01:01:15,0.01,0.00,0.00,16.80,15.42,18.52,9.55,38.82,1007.63,2089.05,3565.17,3412.68,3716.69,500.27,503.22,0.17,0000 0000 0000 0000 000000
2014-07-22 01:06:16,0.02,0.00,0.00,17.19,15.63,19.03,9.55,38.76,1007.81,2088.36,3563.58,3411.08,3714.88,500.18,502.54,0.21,0000 0000 0000 0000 000000
2014-07-22 01:11:18,0.02,0.00,0.00,17.59,15.88,19.49,9.51,38.65,1007.83,2087.55,3561.99,3409.40,3712.89,499.57,501.21,0.25,0000 0000 0000 0000 000000
2014-07-22 01:16:20,0.00,0.00,0.00,18.02,16.14,19.97,9.47,38.73,1007.88,2086.65,3560.44,3407.66,3710.89,499.90,500.78,0.30,0000 0000 0000 0000 000000
2014-07-22 01:21:22,0.02,0.00,0.00,18.43,16.44,20.43,9.43,38.70,1008.17,2085.66,3558.68,3405.75,3708.78,499.62,499.89,0.34,0000 0000 0000 0000 000000
2014-07-22 01:26:23,0.02,0.00,0.00,18.83,16.75,20.89,9.44,38.49,1008.30,2084.65,3556.90,3403.79,3706.50,499.70,499.32,0.38,0000 0000 0000 0000 000000
2014-07-22 01:31:25,0.02,0.01,0.00,19.23,17.07,21.33,9.41,38.40,1008.31,2083.64,3555.06,3401.80,3704.23,499.77,498.77,0.42,0000 0000 0000 0000 000000
2014-07-22 01:36:26,0.01,0.01,0.00,19.57,17.40,21.78,9.41,38.27,1008.35,2082.42,3553.15,3399.76,3701.76,499.60,497.85,0.46,0000 0000 0000 0000 000000
2014-07-22 01:41:28,0.03,0.01,0.00,19.89,17.75,22.19,9.47,38.28,1008.56,2081.31,3551.07,3397.60,3699.33,500.57,498.55,0.51,0000 0000 0000 0000 000000
2014-07-22 01:46:29,0.01,0.01,0.00,20.19,18.10,22.60,9.44,38.12,1008.71,2080.08,3549.17,3395.48,3696.77,500.19,497.76,0.55,0000 0000 0000 0000 000000
2014-07-22 01:51:31,-0.03,0.01,0.00,20.48,18.45,23.00,9.47,37.98,1008.80,2078.60,3547.13,3393.30,3694.17,499.91,496.96,0.59,0000 0000 0000 0000 000000
2014-07-22 01:56:32,0.03,0.01,0.00,20.71,18.80,23.42,9.46,38.14,1008.80,2077.43,3544.68,3390.98,3691.50,500.10,496.83,0.63,0000 0000 0000 0000 000000
2014-07-22 02:01:34,0.03,0.01,0.00,20.94,19.16,23.80,9.46,37.96,1008.80,2076.26,3542.47,3388.89,3689.00,500.07,496.35,0.67,0000 0000 0000 0000 000000
2014-07-22 02:06:35,0.01,0.01,0.00,21.19,19.51,24.15,9.44,38.03,1008.80,2074.95,3540.42,3386.67,3686.41,499.88,495.70,0.71,0000 0000 0000 0000 000000
2014-07-22 02:11:36,-0.01,0.01,0.00,21.46,19.86,24.51,9.39,38.03,1008.80,2073.68,3538.13,3384.38,3683.76,499.71,495.17,0.76,0000 0000 0000 0000 000000
2014-07-22 02:16:38,0.01,0.01,0.00,21.70,20.20,24.84,9.42,37.96,1008.81,2072.32,3536.09,3382.12,3681.11,500.21,495.36,0.80,0000 0000 0000 0000 000000
2014-07-22 02:21:39,0.01,0.01,0.00,21.89,20.54,25.18,9.38,37.95,1008.81,2070.96,3533.98,3379.86,3678.49,499.89,494.60,0.84,0000 0000 0000 0000 000000
2014-07-22 02:26:41,-0.03,0.01,0.00,22.07,20.87,25.51,9.37,37.87,1008.82,2069.55,3532.14,3377.56,3675.96,500.00,494.52,0.88,0000 0000 0000 0000 000000
2014-07-22 02:31:42,0.02,0.01,0.00,22.26,21.20,25.80,9.37,37.88,1008.83,2068.30,3530.07,3375.16,3673.44,499.60,493.76,0.92,0000 0000 0000 0000 000000
2014-07-22 02:36:44,-0.00,0.01,0.00,22.41,21.52,26.10,9.45,37.85,1008.82,2066.94,3528.14,3372.90,3670.93,500.03,493.83,0.97,0000 0000 0000 0000 000000
2014-07-22 02:41:45,-0.03,0.01,0.00,22.64,21.82,26.39,9.37,37.85,1008.81,2065.64,3526.25,3370.99,3668.45,499.87,493.32,1.01,0000 0000 0000 0000 000000
2014-07-22 02:46:46,0.01,0.01,0.00,22.82,22.13,26.65,9.38,37.72,1008.83,2064.18,3524.23,3368.82,3665.96,499.67,492.86,1.05,0000 0000 0000 0000 000000
2014-07-22 02:51:48,-0.01,0.01,0.00,22.97,22.43,26.89,9.36,37.68,1008.83,2062.93,3522.39,3366.82,3663.63,499.76,492.67,1.09,0000 0000 0000 0000 000000
2014-07-22 02:56:49,0.00,0.01,0.00,23.12,22.72,27.13,9.36,37.53,1008.85,2061.77,3520.35,3364.75,3661.32,500.08,492.72,1.13,0000 0000 0000 0000 000000
2014-07-22 03:01:51,0.01,0.01,0.00,23.29,23.00,27.35,9.39,37.67,1008.85,2060.71,3518.33,3362.76,3659.06,500.17,492.50,1.18,0000 0000 0000 0000 000000
2014-07-22 03:06:52,-0.01,0.01,0.00,23.39,23.27,27.55,9.32,37.73,1008.92,2059.51,3516.67,3360.85,3656.88,499.56,491.90,1.22,0000 0000 0000 0000 000000
2014-07-22 03:11:53,0.00,0.01,0.00,23.42,23.52,27.76,9.44,37.67,1009.19,2058.39,3514.76,3358.91,3654.70,499.84,492.31,1.26,0000 0000 0000 0000 000000
2014-07-22 03:16:55,0.01,0.01,0.00,23.48,23.76,27.92,9.34,37.71,1009.28,2057.29,3513.05,3357.13,3652.63,499.63,491.82,1.30,0000 0000 0000 0000 000000
2014-07-22 03:21:56,0.01,0.01,0.00,23.49,24.00,28.07,9.35,37.52,1009.28,2056.36,3511.33,3355.47,3650.66,499.34,491.76,1.34,0000 0000 0000 0000 000000
2014-07-22 03:26:57,0.00,0.01,0.00,23.32,24.21,28.15,9.44,37.52,1009.28,2055.36,3509.70,3353.82,3648.91,500.13,492.67,1.38,0000 0000 0000 0000 000000
2014-07-22 03:31:59,-0.02,0.01,0.00,23.14,24.41,28.05,9.51,37.59,1009.29,2054.44,3508.20,3352.40,3647.24,500.17,492.85,1.43,0000 0000 0000 0000 000000
2014-07-22 03:37:00,0.02,0.01,0.00,22.94,24.59,27.93,9.42,37.47,1009.29,2053.74,3506.89,3351.08,3645.82,499.65,492.91,1.47,0000 0000 0000 0000 000000
2014-07-22 03:42:01,-0.01,0.01,0.00,22.83,24.76,27.93,9.41,37.64,1009.27,2052.77,3505.58,3349.67,3644.28,499.59,493.05,1.51,0000 0000 0000 0000 000000
2014-07-22 03:47:02,-0.05,0.01,0.00,22.76,24.92,28.01,9.32,37.48,1009.20,2051.93,3504.39,3348.01,3642.62,499.78,493.24,1.55,0000 0000 0000 0000 000000
2014-07-22 03:52:04,0.13,0.01,0.00,22.73,25.07,28.11,9.58,37.50,1009.11,2051.08,3503.34,3345.47,3641.40,500.21,493.65,1.59,0001 0000 0000 0000 000000
2014-07-22 03:57:05,0.02,0.01,0.00,22.73,25.21,28.18,9.52,37.76,1008.85,2050.43,3502.20,3344.35,3640.01,500.28,493.52,1.64,0001 0000 0000 0000 000000
2014-07-22 04:02:06,0.02,0.01,0.00,22.75,25.34,28.22,9.48,37.97,1008.80,2049.88,3501.03,3343.19,3638.77,500.21,493.63,1.68,0001 0000 0000 0000 000000
2014-07-22 04:07:08,0.03,0.01,0.00,22.76,25.46,28.26,9.49,38.16,1008.81,2049.08,3499.92,3342.16,3637.62,500.03,493.31,1.72,0001 0000 0000 0000 000000
2014-07-22 04:12:09,0.04,0.01,0.00,22.79,25.58,28.28,9.44,37.97,1008.82,2048.72,3498.96,3341.19,3636.52,500.05,493.18,1.76,0001 0000 0000 0000 000000
2014-07-22 04:17:09,0.03,0.01,0.00,22.84,25.68,28.34,9.45,37.90,1008.83,2048.02,3498.00,3340.21,3635.39,500.19,493.34,1.80,0000 0000 0000 0000 000000
2014-07-22 04:22:10,-0.00,0.01,0.00,22.90,25.78,28.38,9.47,37.91,1008.86,2047.38,3497.17,3339.36,3634.37,499.83,492.87,1.84,0001 0000 0000 0000 000000
2014-07-22 04:27:11,-0.00,0.01,0.00,22.93,25.88,28.44,9.44,37.73,1008.87,2047.00,3496.21,3338.44,3633.37,500.14,493.12,1.89,0000 0000 0000 0000 000000
2014-07-22 04:32:12,0.03,0.01,0.00,22.96,25.97,28.52,9.42,38.07,1008.91,2046.94,3495.57,3337.83,3632.51,499.65,492.69,1.93,0000 0000 0000 0000 000000
2014-07-22 04:37:13,-0.10,0.01,0.00,23.07,26.06,28.58,9.49,37.83,1008.84,2046.16,3494.86,3336.96,3631.53,500.25,493.02,1.97,0001 0000 0000 0000 000000
2014-07-22 04:42:14,0.03,0.01,0.00,23.16,26.16,28.65,9.40,37.83,1008.82,2045.99,3493.99,3336.09,3630.71,499.78,492.26,2.01,0000 0000 0000 0000 000000
2014-07-22 04:47:15,-0.03,0.01,0.00,23.22,26.24,28.72,9.43,37.80,1008.82,2045.51,3493.20,3335.40,3629.84,499.98,492.44,2.05,0001 0000 0000 0000 000000
2014-07-22 04:52:16,0.01,0.01,0.00,23.25,26.33,28.79,9.44,37.82,1008.82,2045.02,3492.22,3334.59,3628.97,500.08,492.54,2.10,0000 0000 0000 0000 000000
2014-07-22 04:57:17,0.05,0.01,0.00,23.31,26.42,28.85,9.43,37.84,1008.82,2044.83,3491.42,3333.53,3627.64,499.92,492.37,2.14,0000 0000 0000 0000 000000
2014-07-22 05:02:19,-0.01,0.01,0.00,23.38,26.50,28.91,9.44,37.78,1008.82,2044.16,3490.19,3332.48,3626.53,499.81,492.18,2.18,0000 0000 0000 0000 000000
2014-07-22 05:07:20,0.02,0.02,0.00,23.45,26.58,28.97,9.47,37.91,1008.82,2044.00,3489.51,3331.92,3625.85,500.36,492.41,2.22,0000 0000 0000 0000 000000
2014-07-22 05:12:21,0.00,0.02,0.00,23.49,26.65,29.04,9.42,37.73,1008.82,2043.74,3488.71,3331.08,3625.04,499.76,492.00,2.26,0000 0000 0000 0000 000000
2014-07-22 05:17:21,-0.01,0.02,0.00,23.57,26.73,29.10,9.41,37.69,1008.81,2043.09,3488.04,3330.51,3624.28,499.91,491.92,2.30,0000 0000 0000 0000 000000
2014-07-22 05:22:22,0.03,0.02,0.00,23.62,26.81,29.16,9.43,37.80,1008.80,2042.99,3487.40,3329.90,3623.60,500.28,492.18,2.35,0000 0000 0000 0000 000000
2014-07-22 05:27:23,-0.01,0.02,0.00,23.67,26.88,29.23,9.46,37.89,1008.80,2042.70,3486.87,3329.10,3622.97,500.23,491.96,2.39,0000 0000 0000 0000 000000
2014-07-22 05:32:24,-0.01,0.02,0.00,23.74,26.95,29.29,9.42,37.73,1008.80,2042.12,3486.06,3328.79,3622.26,500.03,491.63,2.43,0000 0000 0000 0000 000000
2014-07-22 05:37:26,0.04,0.02,0.00,23.79,27.02,29.35,9.42,37.69,1008.80,2042.00,3485.16,3328.03,3621.27,500.04,491.74,2.47,0000 0000 0000 0000 000000
2014-07-22 05:42:27,0.03,0.02,0.00,23.87,27.09,29.40,9.42,37.72,1008.80,2041.97,3484.71,3327.36,3620.76,499.99,491.41,2.51,0000 0000 0000 0000 000000
2014-07-22 05:47:28,-0.01,0.02,0.00,23.95,27.16,29.46,9.44,37.54,1008.80,2041.53,3483.69,3326.57,3619.65,500.13,491.41,2.56,0000 0000 0000 0000 000000
2014-07-22 05:52:29,0.01,0.02,0.00,24.00,27.22,29.53,9.45,37.45,1008.80,2041.02,3482.96,3325.88,3618.77,500.13,491.36,2.60,0000 0000 0000 0000 000000
2014-07-22 05:57:30,0.04,0.02,0.00,24.05,27.29,29.59,9.42,37.45,1008.80,2040.98,3482.43,3325.09,3618.01,499.92,491.15,2.64,0000 0000 0000 0000 000000
2014-07-22 06:02:31,-0.04,0.02,0.00,24.10,27.36,29.66,9.41,37.49,1008.80,2040.56,3482.01,3324.87,3617.35,500.03,491.19,2.68,0000 0000 0000 0000 000000
2014-07-22 06:07:33,0.03,0.02,0.00,24.17,27.42,29.72,9.36,37.44,1008.80,2040.03,3481.05,3324.00,3616.55,500.00,490.89,2.72,0000 0000 0000 0000 000000
2014-07-22 06:12:34,0.04,0.02,0.00,24.24,27.49,29.78,9.55,37.40,1008.80,2040.00,3480.20,3323.25,3616.00,500.19,491.18,2.76,0000 0000 0000 0000 000000
2014-07-22 06:17:35,0.03,0.02,0.00,24.29,27.55,29.86,9.38,37.42,1008.80,2039.99,3479.64,3322.83,3615.37,499.89,490.71,2.81,0000 0000 0000 0000 000000
2014-07-22 06:22:36,0.01,0.02,0.00,24.34,27.62,29.91,9.40,37.54,1008.79,2039.77,3479.00,3322.05,3614.71,499.87,490.57,2.85,0000 0000 0000 0000 000000
2014-07-22 06:27:38,-0.03,0.02,0.00,24.41,27.69,29.98,9.43,37.58,1008.80,2039.14,3478.43,3321.70,3614.03,500.26,490.79,2.89,0000 0000 0000 0000 000000
2014-07-22 06:32:39,0.02,0.02,0.00,24.49,27.75,30.04,9.34,37.42,1008.80,2039.00,3477.91,3321.03,3613.54,499.84,490.25,2.93,0000 0000 0000 0000 000000
2014-07-22 06:37:40,0.02,0.02,0.00,24.56,27.81,30.10,9.34,37.36,1008.80,2038.90,3477.52,3320.70,3612.87,499.84,490.14,2.97,0000 0000 0000 0000 000000
2014-07-22 06:42:41,-0.05,0.02,0.00,24.62,27.88,30.16,9.41,37.34,1008.80,2038.17,3476.94,3320.02,3612.05,500.18,490.38,3.02,0000 0000 0000 0000 000000
2014-07-22 06:47:42,0.03,0.02,0.00,24.68,27.94,30.23,9.37,37.21,1008.80,2038.02,3476.17,3319.61,3611.76,499.94,490.13,3.06,0000 0000 0000 0000 000000
2014-07-22 06:52:43,0.02,0.02,0.00,24.74,28.00,30.29,9.44,37.30,1008.80,2038.00,3475.88,3319.02,3611.04,500.28,490.39,3.10,0000 0000 0000 0000 000000
2014-07-22 06:57:45,0.02,0.03,0.00,24.80,28.06,30.35,9.46,37.18,1008.80,2037.91,3475.22,3318.68,3610.55,500.10,490.03,3.14,0000 0000 0000 0000 000000
2014-07-22 07:02:45,-0.05,0.03,0.00,24.84,28.12,30.40,9.50,37.13,1008.80,2037.32,3474.89,3318.03,3610.01,500.39,490.21,3.18,0000 0000 0000 0000 000000
2014-07-22 07:07:47,0.02,0.02,0.00,24.90,28.18,30.46,9.38,37.05,1008.80,2037.02,3474.16,3317.81,3609.39,499.90,489.70,3.22,0000 0000 0000 0000 000000
2014-07-22 07:12:48,0.02,0.03,0.00,24.95,28.24,30.52,9.44,37.06,1008.80,2036.99,3473.92,3317.08,3608.87,500.38,489.99,3.27,0000 0000 0000 0000 000000
2014-07-22 07:17:49,-0.00,0.03,0.00,25.01,28.30,30.58,9.57,37.10,1008.80,2036.74,3473.53,3316.86,3608.09,500.64,489.83,3.31,0000 0000 0000 0000 000000
2014-07-22 07:22:50,-0.04,0.03,0.00,25.08,28.36,30.63,9.34,37.09,1008.80,2036.18,3472.97,3316.12,3607.81,499.66,488.96,3.35,0000 0000 0000 0000 000000
2014-07-22 07:27:51,0.01,0.02,0.00,25.14,28.42,30.70,9.39,36.94,1008.80,2036.00,3472.73,3315.94,3607.06,500.32,489.74,3.39,0000 0000 0000 0000 000000
2014-07-22 07:32:52,0.04,0.03,0.00,25.22,28.48,30.75,9.34,36.88,1008.80,2035.93,3472.08,3315.14,3606.30,499.88,489.08,3.43,0000 0000 0000 0000 000000
2014-07-22 07:37:53,-0.05,0.03,0.00,25.28,28.54,30.81,9.33,36.96,1008.81,2035.35,3471.56,3314.75,3605.91,499.85,488.90,3.48,0000 0000 0000 0000 000000
2014-07-22 07:42:54,0.02,0.03,0.00,25.34,28.60,30.87,9.40,36.96,1008.80,2035.01,3471.05,3314.09,3605.16,499.82,488.86,3.52,0000 0000 0000 0000 000000
2014-07-22 07:47:56,0.01,0.03,0.00,25.38,28.66,30.92,9.38,36.87,1008.81,2034.99,3470.78,3313.89,3604.84,499.84,488.89,3.56,0000 0000 0000 0000 000000
2014-07-22 07:52:57,-0.04,0.03,0.00,25.41,28.72,30.99,9.30,36.83,1008.81,2034.49,3470.16,3313.18,3604.06,499.78,488.68,3.60,0000 0000 0000 0000 000000
2014-07-22 07:57:58,0.04,0.02,0.00,25.47,28.78,31.04,9.34,37.13,1008.81,2034.03,3469.54,3312.61,3603.22,499.92,488.82,3.64,0000 0000 0000 0000 000000
2014-07-22 08:02:59,0.10,0.03,0.00,25.53,28.84,31.10,9.42,37.11,1008.81,2034.00,3467.26,3311.01,3601.18,500.72,489.44,3.68,0000 0000 0000 0000 000000
2014-07-22 08:08:00,-0.01,0.03,0.00,25.60,28.90,31.15,9.31,37.01,1008.82,2033.77,3466.83,3310.18,3600.87,499.76,488.34,3.73,0000 0000 0000 0000 000000
2014-07-22 08:13:01,-0.03,0.03,0.00,25.63,28.96,31.21,9.40,37.02,1008.82,2033.25,3466.07,3309.96,3600.14,499.48,488.03,3.77,0000 0000 0000 0000 000000
2014-07-22 08:18:03,0.07,0.03,0.00,25.68,29.01,31.26,9.25,36.92,1008.82,2033.01,3465.28,3308.77,3599.16,499.84,488.35,3.81,0000 0000 0000 0000 000000
2014-07-22 08:23:04,0.05,0.03,0.00,25.71,29.07,31.32,9.40,36.82,1008.81,2032.99,3464.44,3307.85,3598.07,500.19,488.65,3.85,0000 0000 0000 0000 000000
2014-07-22 08:28:05,0.01,0.04,0.00,25.75,29.12,31.37,9.29,36.83,1008.81,2032.77,3463.38,3307.03,3597.10,499.70,488.14,3.89,0000 0000 0000 0000 000000
2014-07-22 08:33:06,-0.03,0.03,0.00,25.78,29.18,31.43,9.35,36.84,1008.80,2032.06,3463.02,3306.67,3596.59,499.91,488.30,3.94,0000 0000 0000 0000 000000
2014-07-22 08:38:07,0.02,0.03,0.00,25.83,29.23,31.49,9.39,36.98,1008.80,2032.00,3462.50,3306.02,3596.00,500.30,488.59,3.98,0000 0000 0000 0000 000000
2014-07-22 08:43:08,0.03,0.04,0.00,25.91,29.29,31.54,9.26,36.80,1008.80,2031.97,3462.02,3305.68,3595.35,499.63,487.59,4.02,0000 0000 0000 0000 000000
2014-07-22 08:48:09,-0.05,0.04,0.00,25.97,29.34,31.58,9.43,36.97,1008.80,2031.50,3461.64,3305.05,3594.98,500.26,488.12,4.06,0000 0000 0000 0000 000000
2014-07-22 08:53:10,0.00,0.03,0.00,26.04,29.40,31.64,9.22,36.74,1008.80,2031.04,3461.05,3304.93,3594.42,499.48,487.37,4.10,0000 0000 0000 0000 000000
2014-07-22 08:58:11,0.02,0.03,0.00,26.10,29.45,31.69,9.36,36.77,1008.80,2030.99,3460.96,3304.15,3593.96,499.95,487.74,4.14,0000 0000 0000 0000 000000
2014-07-22 09:03:11,0.02,0.04,0.00,26.16,29.51,31.74,9.33,36.74,1008.80,2030.80,3460.22,3303.84,3593.20,499.71,487.38,4.19,0000 0000 0000 0000 000000
2014-07-22 09:08:12,-0.03,0.03,0.00,26.21,29.56,31.79,9.33,36.83,1008.80,2030.16,3459.34,3303.06,3592.64,499.69,487.23,4.23,0000 0000 0000 0000 000000
2014-07-22 09:13:14,0.01,0.03,0.00,26.27,29.62,31.84,9.31,36.65,1008.80,2030.01,3458.98,3302.74,3592.03,500.16,487.57,4.27,0000 0000 0000 0000 000000
2014-07-22 09:18:15,0.04,0.04,0.00,26.33,29.67,31.90,9.37,36.79,1008.79,2029.99,3458.42,3302.06,3591.67,499.95,487.34,4.31,0000 0000 0000 0000 000000
2014-07-22 09:23:16,0.05,0.04,0.00,26.37,29.73,31.95,9.31,36.68,1008.80,2029.95,3457.62,3301.63,3590.87,500.10,487.46,4.35,0000 0000 0000 0000 000000
2014-07-22 09:28:17,-0.03,0.04,0.00,26.40,29.78,32.00,9.37,36.77,1008.80,2029.35,3456.35,3300.75,3590.02,500.21,487.48,4.40,0000 0000 0000 0000 000000
2014-07-22 09:33:18,0.01,0.04,0.00,26.46,29.83,32.05,9.37,36.71,1008.80,2029.04,3456.00,3300.06,3589.27,500.09,487.39,4.44,0000 0000 0000 0000 000000
2014-07-22 09:38:19,0.02,0.04,0.00,26.50,29.89,32.10,9.42,36.59,1008.80,2029.00,3455.57,3299.94,3589.00,500.14,487.35,4.48,0000 0000 0000 0000 000000
2014-07-22 09:43:20,0.03,0.04,0.00,26.54,29.94,32.15,9.37,36.58,1008.80,2028.97,3455.01,3299.17,3588.52,499.63,486.72,4.52,0000 0000 0000 0000 000000
2014-07-22 09:48:21,-0.05,0.04,0.00,26.58,30.00,32.21,9.35,36.38,1008.81,2028.53,3454.58,3298.94,3587.98,499.89,486.80,4.56,0000 0000 0000 0000 000000
2014-07-22 09:53:23,0.01,0.04,0.00,26.63,30.05,32.26,9.36,36.44,1008.82,2028.03,3454.01,3298.21,3587.20,499.71,486.65,4.60,0000 0000 0000 0000 000000
2014-07-22 09:58:24,0.01,0.04,0.00,26.68,30.10,32.31,9.32,36.48,1008.83,2028.00,3453.62,3297.98,3586.95,500.12,487.05,4.65,0000 0000 0000 0000 000000
2014-07-22 10:03:24,0.03,0.04,0.00,26.76,30.16,32.36,9.22,36.58,1008.82,2027.98,3453.07,3297.45,3586.22,499.75,486.57,4.69,0000 0000 0000 0000 000000
2014-07-22 10:08:26,-0.03,0.04,0.00,26.82,30.21,32.42,9.20,36.55,1008.82,2027.73,3452.92,3297.00,3585.94,499.47,486.19,4.73,0000 0000 0000 0000 000000
2014-07-22 10:13:27,-0.01,0.04,0.00,26.88,30.27,32.47,9.30,36.66,1008.82,2027.09,3452.16,3296.71,3585.19,500.06,486.57,4.77,0000 0000 0000 0000 000000
2014-07-22 10:18:28,0.01,0.04,0.00,26.95,30.32,32.52,9.28,36.33,1008.82,2027.00,3451.99,3296.04,3584.98,500.22,486.65,4.81,0000 0000 0000 0000 000000
2014-07-22 10:23:29,0.03,0.04,0.00,27.01,30.38,32.59,9.33,36.33,1008.82,2026.99,3451.43,3295.91,3584.35,500.23,486.41,4.86,0000 0000 0000 0000 000000
2014-07-22 10:28:30,0.03,0.04,0.00,27.06,30.43,32.64,9.26,36.41,1008.81,2026.73,3450.44,3294.84,3583.49,500.11,486.33,4.90,0000 0000 0000 0000 000000
2014-07-22 10:33:31,-0.01,0.04,0.00,27.12,30.49,32.71,9.30,36.48,1008.81,2026.11,3449.24,3294.02,3582.68,499.89,486.08,4.94,0000 0000 0000 0000 000000
2014-07-22 10:38:32,0.03,0.04,0.00,27.19,30.55,32.77,9.31,36.24,1008.80,2026.00,3448.80,3293.31,3581.94,500.04,486.05,4.98,0000 0000 0000 0000 000000
2014-07-22 10:43:33,0.04,0.05,0.00,27.26,30.61,32.84,9.30,36.38,1008.81,2025.99,3448.02,3292.71,3581.09,499.73,485.58,5.02,0000 0000 0000 0000 000000
2014-07-22 10:48:34,0.02,0.05,0.00,27.32,30.67,32.92,9.23,36.13,1008.82,2025.80,3447.14,3292.00,3580.40,499.65,485.54,5.06,0000 0000 0000 0000 000000
2014-07-22 10:53:35,-0.03,0.05,0.00,27.39,30.73,33.00,9.26,36.30,1008.82,2025.14,3446.67,3291.29,3579.73,499.80,485.61,5.11,0000 0000 0000 0000 000000
2014-07-22 10:58:36,0.03,0.05,0.00,27.47,30.79,33.07,9.30,36.46,1008.83,2025.00,3445.99,3290.74,3579.00,499.56,485.28,5.15,0000 0000 0000 0000 000000
2014-07-22 11:03:38,0.04,0.05,0.00,27.55,30.85,33.15,9.33,36.41,1008.82,2024.98,3445.21,3290.01,3578.16,500.03,485.45,5.19,0000 0000 0000 0000 000000
2014-07-22 11:08:39,-0.02,0.05,0.00,27.62,30.91,33.23,9.22,36.50,1008.82,2024.69,3444.89,3289.55,3577.85,499.85,485.15,5.23,0000 0000 0000 0000 000000
2014-07-22 11:13:40,-0.02,0.05,0.00,27.69,30.97,33.30,9.34,36.22,1008.82,2024.10,3444.12,3289.01,3577.06,500.01,485.18,5.27,0000 0000 0000 0000 000000
2014-07-22 11:18:41,0.02,0.05,0.00,27.76,31.03,33.35,9.29,36.35,1008.82,2024.00,3443.96,3288.65,3576.71,499.97,485.03,5.32,0000 0000 0000 0000 000000
2014-07-22 11:23:41,0.03,0.05,0.00,27.82,31.09,33.40,9.38,36.20,1008.81,2024.00,3443.28,3288.05,3576.05,500.34,485.34,5.36,0000 0000 0000 0000 000000
2014-07-22 11:28:43,-0.00,0.05,0.00,27.87,31.15,33.44,9.24,36.18,1008.81,2023.84,3442.96,3287.84,3575.74,500.02,484.98,5.40,0000 0000 0000 0000 000000
2014-07-22 11:33:44,-0.02,0.05,0.00,27.92,31.21,33.49,9.24,36.09,1008.81,2023.23,3442.27,3287.10,3575.05,500.17,484.94,5.44,0000 0000 0000 0000 000000
2014-07-22 11:38:45,0.00,0.05,0.00,27.95,31.26,33.52,9.28,36.09,1008.81,2023.02,3441.97,3286.90,3574.73,500.08,484.82,5.48,0000 0000 0000 0000 000000
2014-07-22 11:43:46,0.04,0.05,0.00,27.97,31.31,33.56,9.28,36.04,1008.80,2022.99,3441.28,3286.16,3574.03,499.87,484.68,5.52,0000 0000 0000 0000 000000
2014-07-22 11:48:47,-0.00,0.05,0.00,27.99,31.36,33.59,9.27,36.13,1008.80,2022.93,3440.92,3285.98,3573.85,499.83,484.54,5.57,0000 0000 0000 0000 000000
2014-07-22 11:53:48,-0.01,0.05,0.00,28.01,31.40,33.62,9.31,36.11,1008.80,2022.54,3440.19,3285.45,3573.11,500.35,485.04,5.61,0000 0000 0000 0000 000000
2014-07-22 11:58:50,-0.02,0.05,0.00,28.01,31.44,33.66,9.22,36.13,1008.80,2022.05,3440.00,3285.02,3572.94,499.81,484.44,5.65,0000 0000 0000 0000 000000
2014-07-22 12:03:51,0.02,0.05,0.00,27.97,31.49,33.70,9.27,36.29,1008.80,2022.00,3439.58,3284.90,3572.22,500.00,484.76,5.69,0000 0000 0000 0000 000000
2014-07-22 12:08:52,0.03,0.05,0.00,27.96,31.52,33.73,9.28,36.23,1008.80,2022.00,3439.02,3284.20,3572.00,499.96,484.66,5.73,0000 0000 0000 0000 000000
2014-07-22 12:13:53,0.00,0.05,0.00,27.93,31.56,33.77,9.27,36.10,1008.80,2021.98,3438.83,3284.00,3571.82,499.93,484.68,5.78,0000 0000 0000 0000 000000
2014-07-22 12:18:54,0.01,0.05,0.00,27.92,31.60,33.80,9.28,36.10,1008.80,2021.80,3438.12,3283.89,3571.08,499.55,484.30,5.82,0000 0000 0000 0000 000000
2014-07-22 12:23:55,-0.03,0.05,0.00,27.90,31.63,33.83,9.36,36.23,1008.80,2021.38,3437.99,3283.26,3570.99,499.60,484.70,5.86,0000 0000 0000 0000 000000
2014-07-22 12:28:56,0.00,0.05,0.00,27.86,31.66,33.85,9.25,36.13,1008.80,2021.09,3437.71,3283.02,3570.65,499.54,484.51,5.90,0000 0000 0000 0000 000000
2014-07-22 12:33:58,0.01,0.05,0.00,27.84,31.69,33.89,9.27,36.21,1008.80,2021.01,3437.07,3282.99,3570.08,499.72,484.60,5.94,0000 0000 0000 0000 000000
2014-07-22 12:38:59,0.01,0.05,0.00,27.82,31.71,33.93,9.30,36.27,1008.80,2021.00,3437.00,3282.75,3570.00,500.13,485.16,5.98,0000 0000 0000 0000 000000
2014-07-22 12:44:01,0.02,0.05,0.00,27.84,31.74,33.94,9.28,36.20,1008.80,2021.00,3436.90,3282.14,3569.76,499.51,484.61,6.03,0000 0000 0000 0000 000000
2014-07-22 12:49:02,0.02,0.05,0.00,27.86,31.77,33.97,9.29,35.98,1008.80,2020.98,3436.27,3282.00,3569.15,500.19,485.10,6.07,0000 0000 0000 0000 000000
2014-07-22 12:54:03,-0.01,0.05,0.00,27.85,31.79,33.98,9.34,36.02,1008.80,2020.85,3436.02,3282.00,3569.01,500.18,485.27,6.11,0000 0000 0000 0000 000000
2014-07-22 12:59:04,-0.02,0.05,0.00,27.85,31.81,34.00,9.30,35.92,1008.80,2020.58,3436.00,3281.83,3568.98,500.28,485.20,6.15,0000 0000 0000 0000 000000
2014-07-22 13:04:05,-0.03,0.05,0.00,27.86,31.83,34.02,9.32,35.92,1008.80,2020.20,3435.89,3281.34,3568.79,499.95,484.89,6.19,0000 0000 0000 0000 000000
2014-07-22 13:09:06,0.02,0.05,0.00,27.88,31.85,34.04,9.29,35.98,1008.79,2020.04,3435.25,3281.04,3568.13,499.52,484.44,6.24,0000 0000 0000 0000 000000
2014-07-22 13:14:07,-0.00,0.05,0.00,27.90,31.87,34.06,9.31,35.86,1008.79,2020.00,3435.01,3281.00,3568.00,500.10,484.90,6.28,0000 0000 0000 0000 000000
2014-07-22 13:19:09,0.00,0.05,0.00,27.91,31.90,34.09,9.27,35.94,1008.75,2020.00,3434.98,3280.91,3567.96,499.93,484.76,6.32,0000 0000 0000 0000 000000
2014-07-22 13:24:10,0.01,0.05,0.00,27.91,31.91,34.11,9.28,35.95,1008.71,2020.00,3434.87,3280.59,3567.73,500.01,484.98,6.36,0000 0000 0000 0000 000000
2014-07-22 13:29:10,0.03,0.05,0.00,27.92,31.92,34.11,9.30,35.93,1008.59,2019.99,3434.37,3280.22,3567.29,500.58,485.13,6.40,0000 0000 0000 0000 000000
2014-07-22 13:34:11,0.00,0.05,0.00,27.93,31.95,34.13,9.30,35.95,1008.47,2019.97,3434.03,3280.03,3567.01,499.84,484.53,6.45,0000 0000 0000 0000 000000
2014-07-22 13:39:12,-0.00,0.05,0.00,27.90,31.95,34.14,9.33,36.06,1008.39,2019.93,3434.00,3280.00,3567.00,500.11,484.64,6.49,0000 0000 0000 0000 000000
2014-07-22 13:44:14,-0.01,0.05,0.00,27.90,31.97,34.16,9.29,35.93,1008.41,2019.86,3434.00,3280.00,3566.97,499.92,484.67,6.53,0000 0000 0000 0000 000000